Stations météo

réclame
Mon MeteoGroup
Glenanne, Grande-Bretagne (3923): Température de l'air & dewpoint: 19.01.2020 03:00:00 - 25.01.2020 03:00:00 (GMT)Glenanne, Grande-Bretagne (3923): Température de l'air -100cm: 19.01.2020 03:00:00 - 25.01.2020 03:00:00 (GMT)Glenanne, Grande-Bretagne (3923): Vitesse du vent: 19.01.2020 03:00:00 - 25.01.2020 03:00:00 (GMT)Glenanne, Grande-Bretagne (3923): Direction du vent: 19.01.2020 03:00:00 - 25.01.2020 03:00:00 (GMT)Glenanne, Grande-Bretagne (3923): reduced air pressure: 19.01.2020 03:00:00 - 25.01.2020 03:00:00 (GMT)Glenanne, Grande-Bretagne (3923): visibility: 19.01.2020 03:00:00 - 25.01.2020 03:00:00 (GMT)Glenanne, Grande-Bretagne (3923): Quantités de précipitations: 19.01.2020 03:00:00 - 25.01.2020 03:00:00 (GMT)
Date & Time tt [°C] td [°C] tt -100cm [°C] ff [km/h] ff [knt] dd ppp [hPa] vv [km] rr [mm]
25.01.2020 03:00:00 4,5 4,2 - 18 10 SSW 1014,6 7 -
25.01.2020 02:00:00 4,9 4,5 - 24 13 SSW 1015,0 9 0,0
25.01.2020 01:00:00 5,3 4,5 - 15 8 SW 1016,0 40 0,0
25.01.2020 00:00:00 5,6 5,0 - 11 6 SW 1016,8 30 0,0
24.01.2020 23:00:00 5,5 5,0 - 15 8 SW 1017,4 10 0,0
24.01.2020 22:00:00 5,5 5,0 - 13 7 SW 1017,8 9 0,0
24.01.2020 21:00:00 5,6 5,0 - 9 5 SW 1018,4 12 0,0
24.01.2020 20:00:00 5,6 5,0 - 13 7 SW 1018,9 12 0,0
24.01.2020 19:00:00 5,6 5,4 - 11 6 SW 1019,1 9 0,0
24.01.2020 18:00:00 5,7 5,4 - 13 7 SW 1019,0 11 0,0
24.01.2020 17:00:00 6,1 5,5 - 8 4 W 1019,3 30 0,0
24.01.2020 16:00:00 6,7 5,8 - 9 5 WSW 1019,3 28 0,0
24.01.2020 15:00:00 7,0 6,0 - 18 10 SW 1019,0 45 0,0
24.01.2020 14:00:00 7,6 6,7 - 11 6 W 1020,3 10 0,0
24.01.2020 13:00:00 7,0 6,3 - 13 7 WSW 1020,9 40 0,0
24.01.2020 12:00:00 6,6 6,4 - 13 7 WSW 1021,5 17 0,0
24.01.2020 11:00:00 5,8 5,7 - 15 8 W 1022,1 3,9 0,0
24.01.2020 10:00:00 5,6 5,4 - 16 9 WSW 1022,2 11 0,0
24.01.2020 09:00:00 5,4 5,3 6,5 13 7 SW 1022,2 16 0,0
24.01.2020 08:00:00 5,3 5,2 - 15 8 WSW 1022,0 9 0,0
24.01.2020 07:00:00 5,4 5,3 - 11 6 WSW 1022,4 11 0,0
24.01.2020 06:00:00 5,2 5,0 - 11 6 SW 1022,4 2,9 0,0
24.01.2020 05:00:00 5,4 4,8 - 11 6 WSW 1022,5 8 0,0
24.01.2020 04:00:00 5,8 4,9 - 15 8 W 1022,9 25 0,0
24.01.2020 03:00:00 5,6 5,1 - 13 7 W 1023,2 18 0,0
24.01.2020 02:00:00 5,3 4,8 - 9 5 SW 1024,2 12 0,0
24.01.2020 01:00:00 6,5 5,4 - 8 4 W 1025,1 10 0,0
24.01.2020 00:00:00 6,5 5,7 - 8 4 WNW 1025,7 13 0,0
23.01.2020 23:00:00 6,5 5,7 - 8 4 W 1026,0 17 0,0
23.01.2020 22:00:00 6,3 5,9 - 9 5 W 1026,6 25 0,0
23.01.2020 21:00:00 5,6 5,3 - 11 6 SW 1026,4 4,2 0,0
23.01.2020 20:00:00 6,4 5,9 - 9 5 W 1027,0 45 0,0
23.01.2020 19:00:00 5,9 5,6 - 9 5 SW 1027,2 9 0,0
23.01.2020 18:00:00 5,8 5,4 - 5 3 SW 1027,7 18 0,0
23.01.2020 17:00:00 6,1 5,1 - 5 3 W 1027,7 18 0,0
23.01.2020 16:00:00 6,9 5,7 - 5 3 W 1028,1 35 0,0
23.01.2020 15:00:00 7,2 6,2 - 9 5 WNW 1028,7 30 0,0
23.01.2020 14:00:00 7,3 6,0 - 9 5 WNW 1029,8 35 0,0
23.01.2020 13:00:00 7,2 5,9 - 9 5 WNW 1030,8 40 0,0
23.01.2020 12:00:00 7,4 6,0 - 9 5 WNW 1031,4 45 0,0
23.01.2020 11:00:00 7,2 6,1 - 9 5 WNW 1031,8 40 0,0
23.01.2020 10:00:00 6,3 5,9 - 5 3 WNW 1032,2 45 0,0
23.01.2020 09:00:00 4,8 4,2 6,4 4 2 NW 1032,7 40 0,0
23.01.2020 08:00:00 5,2 5,2 - 4 2 W 1032,8 40 0,0
23.01.2020 07:00:00 2,6 2,6 - 5 3 SSW 1032,9 12 0,0
23.01.2020 06:00:00 2,8 2,7 - 5 3 SSW 1033,2 - 0,0
23.01.2020 05:00:00 2,9 2,8 - 2 1 SSW 1033,4 0,2 0,0
23.01.2020 04:00:00 4,4 4,3 - 5 3 N 1034,1 0,1 0,0
23.01.2020 03:00:00 5,4 5,2 - 8 4 N 1034,9 0,2 0,0
23.01.2020 02:00:00 6,9 6,8 - 4 2 SW 1034,9 16 0,0
23.01.2020 01:00:00 7,4 7,2 - 2 1 SSW 1035,2 12 0,0
23.01.2020 00:00:00 8,1 7,8 - 8 4 N 1036,0 14 0,0
22.01.2020 23:00:00 8,1 7,7 - 2 1 WNW 1035,9 9 0,0
22.01.2020 22:00:00 7,9 7,7 - 11 6 WSW 1036,0 5 0,0
22.01.2020 21:00:00 8,1 7,7 - 8 4 WSW 1036,5 10 0,0
22.01.2020 20:00:00 8,3 7,8 - 9 5 W 1037,0 7 0,0
22.01.2020 19:00:00 8,1 7,4 - 9 5 WSW 1037,5 19 0,0
22.01.2020 18:00:00 8,4 8,1 - 5 3 SW 1037,5 14 0,0
22.01.2020 17:00:00 8,1 7,7 - 4 2 S 1037,5 13 0,0
22.01.2020 16:00:00 9,0 6,9 - 4 2 N 1037,3 12 0,0
22.01.2020 15:00:00 11,1 8,1 - 2 1 ESE 1037,3 9 0,0
22.01.2020 14:00:00 10,4 8,7 - 0 0 N 1037,7 35 0,0
22.01.2020 13:00:00 10,1 8,0 - 4 2 WNW 1038,6 45 0,0
22.01.2020 12:00:00 9,4 8,3 - 5 3 NE 1039,1 40 0,0
22.01.2020 11:00:00 9,0 7,8 - 4 2 SW 1039,3 45 0,0
22.01.2020 10:00:00 8,4 7,9 - 5 3 N 1039,3 45 0,0
22.01.2020 09:00:00 7,5 7,0 6,4 5 3 SW 1039,1 30 0,0
22.01.2020 08:00:00 7,6 7,3 - 4 2 SSW 1039,1 50 0,0
22.01.2020 07:00:00 7,9 7,6 - 5 3 NNW 1039,0 50 0,0
22.01.2020 06:00:00 7,4 7,0 - 4 2 SW 1039,0 35 0,0
22.01.2020 05:00:00 7,9 7,6 - 8 4 WNW 1039,2 40 0,0
22.01.2020 04:00:00 7,9 7,5 - 5 3 W 1039,4 45 0,0
22.01.2020 03:00:00 7,5 7,2 - 2 1 SSW 1039,5 35 0,0
22.01.2020 02:00:00 7,7 7,4 - 4 2 W 1039,6 27 0,0
22.01.2020 01:00:00 8,2 7,9 - 4 2 WSW 1039,9 45 0,0
22.01.2020 00:00:00 8,3 8,1 - 13 7 NW 1040,1 26 0,0
21.01.2020 23:00:00 8,4 8,1 - 16 9 NW 1039,7 16 0,0
21.01.2020 22:00:00 8,5 8,1 - 16 9 NW 1039,6 26 0,0
21.01.2020 21:00:00 8,6 8,0 - 9 5 NW 1040,1 19 0,0
21.01.2020 20:00:00 8,7 8,1 - 11 6 NW 1040,1 26 0,0
21.01.2020 19:00:00 8,5 8,2 - 8 4 NW 1040,0 24 0,0
21.01.2020 18:00:00 8,4 8,0 - 4 2 WNW 1040,1 14 0,0
21.01.2020 17:00:00 8,5 7,9 - 8 4 WSW 1039,7 9 0,0
21.01.2020 16:00:00 8,8 8,0 - 8 4 WNW 1039,6 28 0,0
21.01.2020 15:00:00 9,0 8,0 - 5 3 SSW 1039,5 35 0,0
21.01.2020 14:00:00 8,8 8,0 - 5 3 WSW 1040,5 30 0,0
21.01.2020 13:00:00 8,7 8,1 - 9 5 W 1041,0 50 0,0
21.01.2020 12:00:00 7,9 7,2 - 13 7 W 1041,5 40 0,0
21.01.2020 11:00:00 6,9 6,8 - 11 6 SW 1041,8 7 0,0
21.01.2020 10:00:00 6,3 6,1 - 11 6 WSW 1041,9 5 0,0
21.01.2020 09:00:00 6,2 5,9 6,5 9 5 SW 1041,4 4,5 0,0
21.01.2020 08:00:00 7,2 6,4 - 5 3 W 1041,0 15 0,0
21.01.2020 07:00:00 7,3 6,2 - 16 9 WNW 1040,6 45 0,0
21.01.2020 06:00:00 7,4 6,0 - 13 7 WNW 1040,8 20 0,0
21.01.2020 05:00:00 7,4 5,7 - 21 11 WNW 1040,6 30 0,0
21.01.2020 04:00:00 7,2 5,3 - 15 8 WNW 1040,4 26 0,0
21.01.2020 03:00:00 6,5 4,4 - 15 8 W 1041,1 23 0,0
21.01.2020 02:00:00 6,8 4,4 - 16 9 W 1041,2 27 0,0
21.01.2020 01:00:00 6,7 3,9 - 16 9 W 1042,0 22 0,0
21.01.2020 00:00:00 5,5 3,9 - 9 5 WSW 1042,7 24 0,0
20.01.2020 23:00:00 6,2 4,0 - 9 5 WSW 1042,9 27 0,0
20.01.2020 22:00:00 5,7 4,0 - 11 6 SW 1043,1 19 0,0
20.01.2020 21:00:00 5,5 3,9 - 9 5 SSW 1043,6 20 0,0
20.01.2020 20:00:00 5,5 4,0 - 11 6 SW 1043,8 26 0,0
20.01.2020 19:00:00 6,3 4,2 - 13 7 WSW 1043,8 24 0,0
20.01.2020 18:00:00 6,2 4,2 - 11 6 WSW 1043,7 24 0,0
20.01.2020 17:00:00 5,8 4,3 - 9 5 SW 1043,7 30 0,0
20.01.2020 16:00:00 5,2 3,8 - 11 6 SW 1043,8 23 0,0
20.01.2020 15:00:00 4,9 3,6 - 9 5 SW 1044,1 24 0,0
20.01.2020 14:00:00 4,5 3,4 - 13 7 SSW 1044,2 20 0,0
20.01.2020 13:00:00 4,1 2,8 - 11 6 SW 1044,8 27 0,0
20.01.2020 12:00:00 3,5 2,3 - 13 7 SSW 1044,9 30 0,0
20.01.2020 11:00:00 2,4 1,9 - 13 7 SW 1045,0 15 0,0
20.01.2020 10:00:00 0,4 0,2 - 13 7 WSW 1045,4 2,8 0,0
20.01.2020 09:00:00 0,0 -0,2 6,7 15 8 SW 1045,4 11 0,0
20.01.2020 08:00:00 -0,8 -1,1 - 8 4 SSW 1045,4 6 0,0
20.01.2020 07:00:00 0,2 -0,1 - 13 7 SSW 1045,3 14 0,0
20.01.2020 06:00:00 0,4 0,0 - 9 5 SSW 1045,2 18 0,0
20.01.2020 05:00:00 0,1 -0,5 - 5 3 WSW 1045,3 15 0,0
20.01.2020 04:00:00 1,4 0,6 - 15 8 SSW 1045,2 21 0,0
20.01.2020 03:00:00 1,3 0,5 - 13 7 SSW 1045,5 21 0,0
20.01.2020 02:00:00 1,2 0,6 - 13 7 S 1045,4 21 0,0
20.01.2020 01:00:00 0,8 0,1 - 15 8 SSW 1045,6 16 0,0
20.01.2020 00:00:00 1,5 0,7 - 16 9 SW 1045,1 18 0,0
19.01.2020 23:00:00 1,3 0,4 - 15 8 SW 1045,4 18 0,0
19.01.2020 22:00:00 1,3 0,1 - 9 5 SW 1045,9 19 0,0
19.01.2020 21:00:00 1,3 0,1 - 5 3 S 1045,7 19 0,0
19.01.2020 20:00:00 1,6 -0,1 - 5 3 SSW 1045,5 22 0,0
19.01.2020 19:00:00 2,0 0,1 - 9 5 SSW 1045,4 23 0,0
19.01.2020 18:00:00 2,3 -0,2 - 4 2 E 1045,0 24 0,0
19.01.2020 17:00:00 3,1 0,4 - 15 8 S 1044,3 35 0,0
19.01.2020 16:00:00 3,0 0,0 - 11 6 SSW 1044,6 26 0,0
19.01.2020 15:00:00 3,5 -0,3 - 13 7 SW 1044,1 29 0,0
19.01.2020 14:00:00 3,4 -0,4 - 16 9 SSW 1044,1 23 0,0
19.01.2020 13:00:00 1,5 -1,3 - 15 8 SW 1044,7 27 0,0
19.01.2020 12:00:00 2,8 -0,8 - 15 8 SW 1044,3 35 0,0
19.01.2020 11:00:00 1,7 -1,3 - 16 9 SW 1044,4 35 0,0
19.01.2020 10:00:00 2,7 -1,0 - 9 5 SSW 1044,0 40 0,0
19.01.2020 09:00:00 1,0 -1,9 6,7 11 6 SSW 1043,3 45 0,0
19.01.2020 08:00:00 0,5 -1,8 - 11 6 SSW 1043,1 40 0,0
19.01.2020 07:00:00 0,5 -3,1 - 8 4 SW 1042,6 30 0,0
19.01.2020 06:00:00 1,3 -2,6 - 8 4 SW 1041,7 45 0,0
19.01.2020 05:00:00 1,7 -2,1 - 9 5 WSW 1041,2 40 0,0
19.01.2020 04:00:00 3,1 -1,5 - 11 6 W 1040,6 40 0,0
19.01.2020 03:00:00 2,2 -1,4 - 8 4 WSW 1040,2 40 0,0

tt = Température de l'air
td = dewpoint
tt -100cm = Température de l'air -100cm
ff = Vitesse du vent
dd = Direction du vent
ppp = reduced air pressure
vv = visibility
rr = Quantités de précipitations

stations d'obs. à proximité